Location: Bakov nad Jizerou
(50.4784°N, 14.9394°E)
Time: 05:51:03
(UTC+00:00)

Cosmos 1727 Rocket - Pass Details

Date: 16 June 2021
Orbit: 960 x 997 km, 82.9° (Epoch: 28 July)

Event Time Altitude Azimuth Distance (km) Brightness Sun altitude
Rises 20:27:14 0° 195° (SSW) 3,698 6.6 -8.7°
Reaches altitude 10° 20:29:46 10° 197° (SSW) 2,749 6.0 -8.9°
Maximum altitude 20:36:05 72° 282° (WNW) 1,039 4.3 -9.5°
Drops below altitude 10° 20:42:22 10° 7° (N) 2,744 7.2 -10.0°
Sets 20:44:54 0° 9° (N) 3,690 7.9 -10.2°
